EST,Max TemperatureF,Mean TemperatureF,Min TemperatureF,Max Dew PointF,MeanDew PointF,Min DewpointF,Max Humidity, Mean Humidity, Min Humidity, Max Sea Level PressureIn, Mean Sea Level PressureIn, Min Sea Level PressureIn, Max VisibilityMiles, Mean VisibilityMiles, Min VisibilityMiles, Max Wind SpeedMPH, Mean Wind SpeedMPH, Max Gust SpeedMPH,PrecipitationIn, CloudCover, Events, WindDirDegrees
2013-1-1,42,39,35,41,37,30,100,88,76,30.09,30.03,29.94,10,3,1,15,2,20,0.49,8,Rain,176
2013-1-2,43,39,35,41,33,30,96,86,76,30.15,30.09,29.96,10,8,1,9,2,13,0.04,8,Rain,3
2013-1-3,42,34,25,30,27,20,82,67,51,30.31,30.21,30.13,10,10,10,9,3,12,0.00,5,,295
2013-1-4,39,30,20,26,20,18,92,72,52,30.40,30.36,30.32,10,7,0,14,4,20,0.00,3,Fog,263
2013-1-5,45,32,18,32,23,17,92,65,37,30.43,30.33,30.24,10,10,8,7,0,8,0.02,4,Rain,191
2013-1-6,42,39,35,36,34,28,92,81,70,30.25,30.18,30.12,10,7,2,15,6,18,0.01,8,Rain-Snow,228
2013-1-7,49,37,25,28,25,22,85,64,42,30.43,30.34,30.26,10,10,9,9,3,,0.00,2,,13
2013-1-8,56,38,20,29,24,17,96,61,26,30.42,30.34,30.30,10,9,7,6,1,7,0.00,2,,18
2013-1-9,48,39,30,45,38,27,93,79,65,30.48,30.42,30.32,10,9,6,8,1,10,T,6,Rain,246
2013-1-10,63,52,41,48,44,41,100,78,55,30.47,30.40,30.23,10,6,0,13,3,18,0.00,5,Fog,90
2013-1-11,63,55,47,58,51,42,100,81,61,30.21,30.10,30.04,10,7,0,14,2,19,0.12,6,Fog-Rain,97
2013-1-12,71,60,49,60,54,50,100,87,73,30.17,30.07,30.00,10,7,0,6,1,7,T,6,Fog-Rain,49
2013-1-13,73,59,45,57,51,44,100,75,49,30.07,29.98,29.93,10,9,3,12,2,15,0.26,5,Rain,311
2013-1-14,59,49,39,57,49,37,100,93,86,30.27,30.12,30.00,10,4,0,14,4,19,1.84,8,Fog-Rain,352
2013-1-15,50,45,39,49,43,38,100,95,89,30.18,30.07,29.93,10,3,2,10,3,13,2.38,8,Rain,18
2013-1-16,55,50,45,51,48,44,100,97,93,30.05,29.97,29.87,10,7,1,15,4,20,1.05,8,Rain,278
2013-1-17,46,38,30,43,34,28,100,91,82,30.30,30.04,29.95,10,6,0,17,7,20,1.21,8,Fog-Rain-Snow,7
2013-1-18,38,29,20,29,24,19,96,83,70,30.53,30.44,30.32,10,4,0,7,1,7,T,3,Fog,330
2013-1-19,46,33,19,32,24,16,100,79,58,30.43,30.35,30.17,10,4,0,5,0,6,0.00,1,Fog,230
2013-1-20,50,37,23,34,26,21,92,69,46,30.18,30.14,30.09,10,7,0,16,4,20,0.00,2,Fog,236
2013-1-21,44,33,22,32,22,8,100,67,33,30.13,30.08,30.02,10,5,0,31,9,37,0.00,3,Fog,261
2013-1-22,29,24,19,4,-1,-5,46,35,23,30.29,30.23,30.12,10,10,10,23,12,33,0.00,3,,269
2013-1-23,39,31,22,21,10,-1,81,57,32,30.35,30.23,30.07,10,10,10,16,7,22,0.00,4,,258
2013-1-24,41,31,20,28,11,-1,81,54,27,30.45,30.29,30.04,10,10,10,24,10,31,0.00,4,,341
2013-1-25,33,27,20,32,24,6,100,75,50,30.42,30.16,30.08,10,4,1,10,5,14,0.36,8,Rain,150
2013-1-26,38,32,26,32,28,24,96,83,70,30.38,30.24,30.14,10,9,3,12,6,15,T,6,,258
2013-1-27,48,35,21,34,27,20,92,73,53,30.44,30.38,30.32,10,9,6,9,3,12,0.02,4,Rain,65
2013-1-28,62,49,36,47,39,32,85,67,49,30.43,30.28,30.19,10,9,7,14,3,16,0.04,6,Rain,301
2013-1-29,70,55,39,51,46,39,100,74,47,30.23,30.12,29.90,10,4,0,6,1,8,0.01,6,Fog,356
2013-1-30,68,56,43,56,51,37,100,79,58,29.85,29.61,29.44,10,6,1,36,10,52,2.11,7,Rain-Thunderstorm,198
2013-1-31,43,37,30,35,24,18,85,65,44,29.98,29.84,29.56,10,9,2,32,15,47,0.03,6,Rain-Snow,251